{"data":{"norad_id":62415,"epoch":"2026-09-21T21:52:44.781888Z","epoch_age_seconds":52534,"freshness":"FRESH","line1":"1 62415U 24249G   26264.91162942  .00130602  00000+0  10042-2 0  9993","line2":"2 62415  42.9995  64.6709 0001719 272.8399  87.2272 15.70868708100344","mean_motion":15.70868708,"eccentricity":0.0001719,"inclination_deg":42.9995,"raan_deg":64.6709,"arg_perigee_deg":272.8399,"mean_anomaly_deg":87.2272,"bstar":0.0010042,"rev_number":10034,"period_min":91.669023175933,"perigee_km":355.25534083467,"apogee_km":357.5706791281,"semimajor_km":6734.5500099814,"source":"CELESTRAK","updated_at":"2026-09-22T09:00:49.576484Z"}}